Regional Weather Roundup
Issued by NWS Wakefield, VA

Home | Current Version | Previous Version | Text Only | Print | Product List | Glossary Off
Versions: 1 2 3 4 5 6 7 8 9 10 11 12 13 14 15 16 17 18 19 20 21 22 23 24 25 26 27 28 29 30 31 32 33 34 35 36 37 38 39 40 41 42 43 44 45 46 47 48 49 50

000
ASUS41 KAKQ 030915
RWRAKQ

REGIONAL WEATHER ROUNDUP
NATIONAL WEATHER SERVICE WAKEFIELD VA
500 AM EDT MON AUG 03 2015

Note: "fair" indicates few or no clouds below 12,000 feet with no
significant weather and/or obstructions to visibility. * = Denotes
station may not report precipitation (e.g., rain,snow,etc.),
thunder or fog.

VAZ042-051-052>054-056-031000-
NORTHERN VIRGINIA

CITY           SKY/WX    TMP DP  RH WIND       PRES   REMARKS
WASH NATIONAL  PTCLDY    74  63  68 S5        29.87F
DULLES         PTCLDY    66  62  87 S7        29.87S
FORT BELVOIR   NOT AVBL
QUANTICO       NOT AVBL
FREDERICKSBRG* PTCLDY    68  66  93 E5        29.87F
STAFFORD*      PTCLDY    60  59  96 SE3       29.92S
WARRENTON      PTCLDY    63  62  99 CALM      29.88S
CULPEPER*      PTCLDY    61  61  99 CALM      29.89S
MANASSAS*      PTCLDY    64  63  94 CALM      29.88S
LEESBURG*      CLEAR     66  64  94 S6        29.87F
WINCHESTER     CLEAR     70  59  68 SW6       29.86F
FRONT ROYAL*   FAIR      64  59  82 S6        29.87S
LURAY*         FAIR      63  63 100 CALM      29.89S
$$

VAZ048-049-060>072-079>083-031000-
CENTRAL AND SOUTH CENTRAL VIRGINIA

CITY           SKY/WX    TMP DP  RH WIND       PRES   REMARKS
RICHMOND       CLEAR     69  64  84 CALM      29.89F
CHESTERFIELD*  FAIR      63  52  67 NW3       29.90F
PETERSBURG*    CLEAR     64  64 100 CALM      29.90S
HANOVER        CLEAR     63  62  97 CALM      29.90F
TAPPAHANNOCK*  CLEAR     65  62  90 CALM      29.90S
QUINTON*       FAIR      65  64  98 CALM      29.89S
CHARLOTTSVILLE PTCLDY    65  60  84 SW5       29.89F
GORDONSVILLE*  FAIR      61  61 100 SW3       29.89F
ORANGE*        CLEAR     63  63 100 CALM      29.91S
LOUISA*        PTCLDY    64  61  88 CALM      29.89S
BUMPASS*       FAIR      61  59  94 CALM      29.89S
FARMVILLE*     CLEAR     58  58 100 CALM      29.90S
CREWE*         FAIR     N/A N/A N/A CALM      29.90F
FORT PICKETT*  FAIR      63  61  95 CALM      29.91S
CHASE CITY*    FAIR      65  65 100 CALM      29.90F
CLARKSVILLE*   FAIR      64  64 100 CALM      29.91S
SOUTH HILL*    CLEAR     62  61  97 CALM      29.96S
LAWRENCEVILLE* FAIR      64  64 100 CALM      29.90S
EMPORIA*       CLEAR     63  63 100 CALM      29.91S FOG
$$

VAZ088>098-031000-
SOUTHEAST VIRGINIA

CITY           SKY/WX    TMP DP  RH WIND       PRES   REMARKS
NORFOLK        PTCLDY    74  70  87 SW8       29.89S
VIRGINIA BEACH PTCLDY    76  70  82 SW7       29.89S
NORFOLK NAVAL  PTCLDY    74  70  87 S7        29.90S
WEST POINT*    CLEAR     69  66  90 CALM      29.90S
SALUDA*        FAIR      69  67  96 CALM      29.88F
NEWPORT NEWS   FOG       66  65  96 CALM      29.89S VSB 1/2
LANGLEY AFB    CLEAR     71  70  96 SW5       29.88F
FORT EUSTIS    CLEAR     72  72 100 SW2       29.87S
WILLIAMSBURG*  CLEAR     73  72  94 CALM      29.90S
HR EXEC AP*    FAIR      72  66  83 S5        29.91F
FRANKLIN*      CLEAR     70  69  96 S3        29.90S
WAKEFIELD      CLEAR     67  64  90 CALM      29.90R FOG
$$

VAZ020-022-025-037-045-031000-
WEST CENTRAL AND SOUTHWEST VIRGINIA

CITY           SKY/WX    TMP DP  RH WIND       PRES   REMARKS
STAUNTON*      CLEAR     60  57  91 CALM      29.93F
WAYNESBORO*    FAIR      57  55  94 SW7       29.94S
HOT SPRINGS VA PTCLDY    64  52  63 SW10      30.03S
LYNCHBURG      PTCLDY    59  59 100 CALM      29.94F
DANVILLE       CLEAR     64  62  93 SW5       29.92S
SOUTH BOSTON*  FAIR      61  60  96 CALM      29.91S
MARTINSVILLE   CLEAR     60  60 100 CALM      29.96F
ROANOKE        CLEAR     63  58  83 CALM      29.96F
BLACKSBURG     CLEAR     58  58 100 CALM      30.01F
DUBLIN*          N/A     60  58  96 CALM      30.00F
MARION*        CLEAR     60  57  89 CALM      30.03F
HILLSVILLE*    CLEAR     63  57  82 CALM      30.00F
RICHLANDS*     FAIR      69  56  63 CALM      30.00S
WISE*          CLEAR     64  52  63 S3        30.01S
ABINGDON*      CLEAR     67  58  71 CALM      29.98S
$$

MDZ021>025-VAZ099-100-031000-
SOUTHERN MARYLAND AND THE DELMARVA PENINSULA

CITY           SKY/WX    TMP DP  RH WIND       PRES   REMARKS
PATUXENT RIVER CLEAR     71  65  81 SW9       29.88S
BAY BRIDGE APT   N/A     73  63  68 SW5       29.86F
LEONARDTOWN    CLEAR     68  63  83 CALM      29.90S
DOVER          CLEAR     67  67 100 S5        29.85F
GEORGETOWN     CLEAR     65  64  97 CALM      29.89S FOG
EASTON         CLEAR     68  68 100 CALM      29.91S
CAMBRIDGE      CLEAR     64  61  88 CALM      29.87S
SALISBURY      CLEAR     68  68 100 CALM      29.88S
OCEAN CITY     CLEAR     64  63  96 CALM      29.88S FOG
WALLOPS ISLAND CLEAR     68  68 100 S6        29.89S
ACCOMACK*      CLEAR    N/A N/A N/A CALM      29.89S FOG
$$

NCZ012>017-030>032-031000-
NORTH CENTRAL AND EASTERN NORTH CAROLINA

CITY           SKY/WX    TMP DP  RH WIND       PRES   REMARKS
ROANOKE RAPIDS FAIR      66  64  94 CALM      29.90S
RALEIGH        PTCLDY    70  67  90 CALM      29.92R
ELIZABETH CITY CLEAR     73  72  96 SW5       29.90F
AHOSKIE*       PTCLDY    68  67  97 CALM      29.91S
EDENTON*       CLEAR     76  72  87 SW3       29.90F
CURRITUCK*     CLEAR     76  72  89 CALM      29.91S
KILL DEVIL HLS CLEAR     77  72  84 SW3       29.90S
MANTEO         CLEAR     77  73  86 SW8       29.92R
CAPE HATTERAS  LGT RAIN  75  71  87 SW12G18   29.93S
TARBORO*         N/A     69  69  97 CALM      29.91S
GOLDSBORO      PTCLDY    73  72  96 SE6       29.89F
WASHINGTON     CLEAR     72  70  96 CALM      29.92S
GREENVILLE     PTCLDY    73  72  94 CALM      29.93S
NEW BERN       MOCLDY    76  72  87 SW3       29.93F
WILMINGTON     CLOUDY    75  72  90 CALM      29.91F
$$

VAZ048-031000-
ELSEWHERE

CITY           SKY/WX    TMP DP  RH WIND       PRES   REMARKS
HARRISBURG PA  PTCLDY    72  61  68 VRB3      29.84F
BALTIMORE      PTCLDY    66  63  90 W3        29.85F
ANNAPOLIS      CLEAR     70  63  78 S7        29.86S
ANDREWS AFB    PTCLDY    67  63  85 S7        29.86F
PHILADELPHIA   CLEAR     73  64  73 S7        29.86F
HENDERSON NC   CLEAR     65  61  84 CALM      29.91F
GREENSBORO     PTCLDY    69  60  73 CALM      29.93S
ROCKY MOUNT    CLEAR     70  68  93 CALM      29.91S FOG
$$

VAZ100-031000-
MARINE

STATION/POSITION TIME  TEMP    WIND        PRES    WAVE   SWELL
                       AIR SEA DIR/SP/G            HT/PER HT/PER
                 (UTC) (F)     (DEG/KT/KT) (MB)    (FT/S) (FT/S)
BRANDYWINE LGT   0800   75 75  230/  8/  9 1012.0R
CAPE MAY NJ      0800   73 75  190/  4/  5 1011.5S
LEWES DE         0800   72 74  230/  5/  6 1011.5S
15NM E FENWICK I 0850   78 79  210/  8/ 10 1011.9S   2/11   2/11
OCEAN-CITY-INLET 0800   74 76  260/  2/  3 1010.9F
WACHAPREAGUE VA  0800   73 82  230/  1/  1 1012.2F
GOOSES REEF MD   0900   78 81  240/ 10/ 12 1012.4F
COVE POINT MD    0800   75     240/ 10/ 12 1012.4S
SOLOMONS ISLAND  0800      83                N/A
BISHOPS HEAD MD  0800   79 81  200/  8/ 10 1010.8F
PINEY POINT MD   0800          260/  4/  6   N/A
POTOMAC MD       0900   78 82  240/ 12/ 16 1010.9R   1/ 2
CAMBRIDGE MD     0800   72 85  220/  2/  3 1010.7F
LEWISETTA VA     0800   74 83  230/  9/ 10 1011.5S
RAPPAHANNOCK LGT 0800          220/ 11/ 12 1012.4F
STINGRAY PT      0900   79 83  250/  8/  8 1011.9F   0
YORK RVR RNG VA  0800   78     250/  6/  7 1011.4F
YORKTOWN VA      0800   75 84  220/  4/  5 1011.7F
JAMESTOWN VA     0900   75 85  220/  8/ 10   N/A
DOMINION TERM VA 0800   79     240/  5/  7 1012.0F
KIPTOPEKE VA     0800      81  260/  5/  6   N/A
CHES BAY BRIDGE  0800   78 80  190/  5/  6 1011.6F
CAPE HENRY VA    0800   75     210/  4/  5   N/A
CHESAPEAKE LGHT  0800   78     230/  7/  7 1013.0F
WILLOUBY STN VA  0800   78     240/  8/ 10 1013.0F
CAPE HENRY BUOY  0828      81                N/A     2/11   2/11
1ST LANDING BUOY 0900      79              1012.0S   1
CAPE CHARLES BUO 0826      80                N/A     2/12   2/12
OFFSHORE WE BUOY 0811      82                N/A     2/11   2/11
64NM E OF VA BCH 0850   81 81  230/ 16/ 19 1011.8F   4/ 5   2/ 7
DUCK PIER NC     0800   79 73  220/ 10/ 13 1012.0F
44100 DUCK FRF   0824      80                N/A     2/ 6
44056 DUCK FRF   0811      79                N/A     2/11   2/11
OREGON INLET NC  0800   79 85  270/  5/  7 1012.8F
HATTERAS NC      0800   76 83  210/  9/ 12 1013.2F
DIAMOND SHLS NC  0850   76 85  240/ 14/ 17 1013.4F   4/ 6   2/ 7
CAPE LOOKOUT NC  0900   77     250/ 13/ 16 1013.0F
$$


USA.gov is the U.S. government's official web portal to all federal, state and local government web resources and services.